When you browse on this site, cookies collect data to enhance your experience and personalize the content and advertising you see.
Visit our Privacy Policy to learn more. By continuing to use the site, you agree to this use of cookies and data.
  • In Spain
  • List of Countries
  • For 7 days
  • Water Temperature
  • Satellite Maps
  • Weather Map
  • Weather Widgets
  • user-avatar
    Login

    Hourly Weather Birao

    Today, 26 June, Wednesday

    Time Temperature Precipitation Wind Pressure Humidity
    00:00 +25°C° 1.5 mm 4 mps 717 mmHg 80%
    01:00 +23°C° 1.5 mm 5 mps 718 mmHg 84%
    02:00 +23°C° 1.5 mm 6 mps 718 mmHg 88%
    03:00 +23°C° 1.5 mm 5 mps 718 mmHg 84%
    04:00 +23°C° 1.5 mm 4 mps 717 mmHg 80%
    05:00 +24°C° 1.5 mm 3 mps 717 mmHg 76%
    06:00 +24°C° 0 mm 3 mps 717 mmHg 77%
    07:00 +23°C° 0 mm 4 mps 718 mmHg 78%
    08:00 +23°C° 0 mm 4 mps 718 mmHg 79%
    09:00 +25°C° 0 mm 4 mps 718 mmHg 78%
    10:00 +25°C° 0 mm 3 mps 719 mmHg 78%
    11:00 +25°C° 0 mm 3 mps 719 mmHg 78%
    12:00 +25°C° 0.1 mm 2 mps 719 mmHg 79%
    13:00 +25°C° 0.1 mm 2 mps 719 mmHg 81%
    14:00 +25°C° 0.1 mm 2 mps 718 mmHg 82%
    15:00 +25°C° 0 mm 1 mps 718 mmHg 81%
    16:00 +26°C° 0 mm 1 mps 717 mmHg 81%
    17:00 +26°C° 0 mm 1 mps 717 mmHg 80%
    18:00 +25°C° 0 mm 1 mps 717 mmHg 82%
    19:00 +25°C° 0 mm 1 mps 717 mmHg 84%
    20:00 +24°C° 0 mm 1 mps 717 mmHg 86%
    21:00 +24°C° 0 mm 1 mps 717 mmHg 86%
    22:00 +24°C° 0 mm 1 mps 718 mmHg 86%
    23:00 +24°C° 0 mm 1 mps 718 mmHg 86%

    Tomorrow, 27 June, Thursday

    Time Temperature Precipitation Wind Pressure Humidity
    00:00 +24°C° 0 mm 1 mps 718 mmHg 85%
    01:00 +24°C° 0 mm 1 mps 718 mmHg 84%
    02:00 +24°C° 0 mm 1 mps 718 mmHg 83%
    03:00 +24°C° 0 mm 1 mps 718 mmHg 85%
    04:00 +24°C° 0 mm 1 mps 718 mmHg 86%
    05:00 +23°C° 0 mm 1 mps 718 mmHg 88%
    06:00 +24°C° 0 mm 1 mps 718 mmHg 84%
    07:00 +25°C° 0 mm 1 mps 719 mmHg 80%
    08:00 +26°C° 0 mm 2 mps 719 mmHg 76%
    09:00 +28°C° 0 mm 2 mps 719 mmHg 69%
    10:00 +30°C° 0 mm 2 mps 719 mmHg 61%
    11:00 +33°C° 0 mm 3 mps 719 mmHg 54%
    12:00 +34°C° 0 mm 3 mps 719 mmHg 50%
    13:00 +35°C° 0 mm 2 mps 718 mmHg 47%
    14:00 +36°C° 0 mm 2 mps 718 mmHg 44%
    15:00 +36°C° 0 mm 2 mps 717 mmHg 46%
    16:00 +35°C° 0 mm 2 mps 717 mmHg 48%
    17:00 +35°C° 0 mm 2 mps 716 mmHg 50%
    18:00 +32°C° 0.1 mm 2 mps 717 mmHg 57%
    19:00 +31°C° 0.1 mm 2 mps 717 mmHg 64%
    20:00 +29°C° 0.1 mm 2 mps 718 mmHg 71%
    21:00 +28°C° 0.2 mm 2 mps 718 mmHg 73%
    22:00 +28°C° 0.2 mm 2 mps 718 mmHg 76%
    23:00 +27°C° 0.2 mm 2 mps 718 mmHg 79%

    Day after tomorrow, 28 June, Friday

    Time Temperature Precipitation Wind Pressure Humidity
    00:00 +27°C° 0.1 mm 2 mps 718 mmHg 80%
    01:00 +26°C° 0.1 mm 2 mps 718 mmHg 82%
    02:00 +26°C° 0.1 mm 2 mps 717 mmHg 83%
    03:00 +26°C° 0 mm 2 mps 717 mmHg 85%
    04:00 +25°C° 0 mm 2 mps 717 mmHg 86%
    05:00 +25°C° 0 mm 2 mps 717 mmHg 88%
    06:00 +26°C° 0 mm 2 mps 718 mmHg 84%
    07:00 +26°C° 0 mm 2 mps 718 mmHg 81%
    08:00 +27°C° 0 mm 2 mps 719 mmHg 78%
    09:00 +29°C° 0 mm 3 mps 719 mmHg 70%
    10:00 +31°C° 0 mm 3 mps 719 mmHg 62%
    11:00 +33°C° 0 mm 4 mps 719 mmHg 54%
    12:00 +34°C° 0 mm 4 mps 719 mmHg 51%
    13:00 +35°C° 0 mm 3 mps 718 mmHg 49%
    14:00 +36°C° 0 mm 3 mps 718 mmHg 47%
    15:00 +35°C° 0 mm 3 mps 717 mmHg 48%
    16:00 +35°C° 0 mm 3 mps 717 mmHg 49%
    17:00 +35°C° 0 mm 3 mps 716 mmHg 49%
    18:00 +32°C° 0.4 mm 2 mps 716 mmHg 57%
    19:00 +30°C° 0.4 mm 2 mps 717 mmHg 65%
    20:00 +28°C° 0.4 mm 1 mps 717 mmHg 72%
    21:00 +28°C° 0.2 mm 1 mps 717 mmHg 74%
    22:00 +27°C° 0.2 mm 2 mps 718 mmHg 76%
    23:00 +27°C° 0.2 mm 2 mps 718 mmHg 78%

    29 June, Saturday

    Time Temperature Precipitation Wind Pressure Humidity
    00:00 +26°C° 1.1 mm 2 mps 718 mmHg 82%
    01:00 +26°C° 1.1 mm 2 mps 718 mmHg 85%
    02:00 +25°C° 1.1 mm 1 mps 718 mmHg 89%
    03:00 +25°C° 1.4 mm 2 mps 718 mmHg 89%
    04:00 +25°C° 1.4 mm 3 mps 718 mmHg 90%
    05:00 +23°C° 1.4 mm 4 mps 717 mmHg 91%
    06:00 +25°C° 0.1 mm 4 mps 718 mmHg 88%
    07:00 +25°C° 0.1 mm 4 mps 718 mmHg 85%
    08:00 +25°C° 0.1 mm 4 mps 718 mmHg 83%
    09:00 +27°C° 0 mm 3 mps 719 mmHg 77%
    10:00 +28°C° 0 mm 3 mps 719 mmHg 72%
    11:00 +30°C° 0 mm 2 mps 719 mmHg 66%
    12:00 +31°C° 0 mm 2 mps 719 mmHg 62%
    13:00 +32°C° 0 mm 2 mps 718 mmHg 58%
    14:00 +34°C° 0 mm 2 mps 718 mmHg 55%
    15:00 +34°C° 0 mm 2 mps 717 mmHg 54%
    16:00 +34°C° 0 mm 2 mps 717 mmHg 53%
    17:00 +34°C° 0 mm 2 mps 717 mmHg 51%
    18:00 +32°C° 0.1 mm 2 mps 717 mmHg 58%
    19:00 +30°C° 0.1 mm 2 mps 717 mmHg 65%
    20:00 +28°C° 0.1 mm 2 mps 717 mmHg 72%
    21:00 +28°C° 0.2 mm 2 mps 717 mmHg 74%
    22:00 +27°C° 0.2 mm 2 mps 718 mmHg 76%
    23:00 +27°C° 0.2 mm 3 mps 718 mmHg 78%

    30 June, Sunday

    Time Temperature Precipitation Wind Pressure Humidity
    00:00 +26°C° 1 mm 3 mps 717 mmHg 81%
    01:00 +26°C° 1 mm 2 mps 717 mmHg 84%
    02:00 +25°C° 1 mm 2 mps 716 mmHg 86%
    03:00 +25°C° 0 mm 2 mps 716 mmHg 87%
    04:00 +25°C° 0 mm 2 mps 716 mmHg 87%
    05:00 +25°C° 0 mm 1 mps 716 mmHg 88%
    06:00 +25°C° 0 mm 2 mps 717 mmHg 85%
    07:00 +26°C° 0 mm 2 mps 717 mmHg 82%
    08:00 +27°C° 0 mm 2 mps 718 mmHg 79%
    09:00 +29°C° 0 mm 2 mps 718 mmHg 71%
    10:00 +31°C° 0 mm 2 mps 718 mmHg 64%
    11:00 +34°C° 0 mm 3 mps 719 mmHg 56%
    12:00 +35°C° 0 mm 3 mps 718 mmHg 53%
    13:00 +36°C° 0 mm 2 mps 718 mmHg 49%
    14:00 +37°C° 0 mm 2 mps 717 mmHg 45%
    15:00 +37°C° 0 mm 2 mps 717 mmHg 46%
    16:00 +37°C° 0 mm 2 mps 716 mmHg 47%
    17:00 +36°C° 0 mm 2 mps 716 mmHg 49%
    18:00 +35°C° 0 mm 2 mps 716 mmHg 55%
    19:00 +33°C° 0 mm 3 mps 716 mmHg 62%
    20:00 +30°C° 0 mm 3 mps 716 mmHg 68%
    21:00 +29°C° 0.6 mm 3 mps 716 mmHg 72%
    22:00 +28°C° 0.6 mm 2 mps 716 mmHg 76%
    23:00 +27°C° 0.6 mm 2 mps 717 mmHg 80%

    1 July, Monday

    Time Temperature Precipitation Wind Pressure Humidity
    00:00 +27°C° 0.4 mm 3 mps 716 mmHg 80%
    01:00 +27°C° 0.4 mm 3 mps 716 mmHg 80%
    02:00 +26°C° 0.4 mm 4 mps 716 mmHg 80%
    03:00 +26°C° 0 mm 4 mps 716 mmHg 83%
    04:00 +26°C° 0 mm 3 mps 716 mmHg 85%
    05:00 +25°C° 0 mm 3 mps 716 mmHg 88%
    06:00 +26°C° 0 mm 3 mps 717 mmHg 85%
    07:00 +26°C° 0 mm 3 mps 717 mmHg 81%
    08:00 +27°C° 0 mm 3 mps 718 mmHg 78%
    09:00 +28°C° 0 mm 3 mps 718 mmHg 71%
    10:00 +30°C° 0 mm 3 mps 718 mmHg 64%
    11:00 +33°C° 0 mm 3 mps 719 mmHg 58%
    12:00 +34°C° 0 mm 3 mps 718 mmHg 56%
    13:00 +35°C° 0 mm 3 mps 718 mmHg 53%
    14:00 +35°C° 0 mm 3 mps 717 mmHg 51%
    15:00 +35°C° 0 mm 3 mps 717 mmHg 53%
    16:00 +35°C° 0 mm 3 mps 716 mmHg 54%
    17:00 +34°C° 0 mm 3 mps 716 mmHg 55%
    18:00 +33°C° 0.1 mm 3 mps 716 mmHg 61%
    19:00 +31°C° 0.1 mm 2 mps 716 mmHg 67%
    20:00 +29°C° 0.1 mm 2 mps 716 mmHg 73%
    21:00 +28°C° 2 mm 2 mps 717 mmHg 76%
    22:00 +28°C° 2 mm 3 mps 717 mmHg 80%
    23:00 +27°C° 2 mm 3 mps 717 mmHg 84%
    Show more